TimeCDT,TemperatureF,Dew PointF,Humidity,Sea Level PressureIn,VisibilityMPH,Wind Direction,Wind SpeedMPH,Gust SpeedMPH,PrecipitationIn,Events,Conditions,WindDirDegrees,DateUTC
12:53 AM,68.0,61.0,78,29.90,10.0,SE,8.1,-,N/A,,Partly Cloudy,140,2013-05-18 05:53:00
1:53 AM,68.0,61.0,78,29.88,10.0,SE,8.1,-,N/A,,Clear,130,2013-05-18 06:53:00
2:53 AM,64.9,61.0,87,29.87,10.0,ESE,6.9,-,N/A,,Clear,120,2013-05-18 07:53:00
3:53 AM,66.0,62.1,87,29.88,10.0,ESE,3.5,-,N/A,,Overcast,110,2013-05-18 08:53:00
4:53 AM,66.0,62.1,87,29.89,10.0,SE,6.9,-,N/A,,Clear,140,2013-05-18 09:53:00
5:53 AM,64.9,62.1,90,29.88,10.0,SE,4.6,-,N/A,,Partly Cloudy,130,2013-05-18 10:53:00
6:53 AM,66.0,63.0,90,29.88,10.0,ESE,6.9,-,N/A,,Clear,110,2013-05-18 11:53:00
7:53 AM,69.1,64.9,87,29.89,10.0,SE,5.8,-,N/A,,Clear,140,2013-05-18 12:53:00
8:53 AM,73.9,66.9,79,29.88,9.0,SSE,10.4,-,N/A,,Scattered Clouds,150,2013-05-18 13:53:00
9:53 AM,77.0,69.1,76,29.87,9.0,SE,10.4,-,N/A,,Mostly Cloudy,140,2013-05-18 14:53:00
10:53 AM,78.1,70.0,76,29.88,7.0,SSE,11.5,18.4,N/A,,Overcast,160,2013-05-18 15:53:00
11:53 AM,81.0,72.0,74,29.85,8.0,ESE,8.1,-,N/A,,Mostly Cloudy,120,2013-05-18 16:53:00
12:22 PM,80.6,71.6,74,29.87,8.0,SE,8.1,-,N/A,,Mostly Cloudy,130,2013-05-18 17:22:00
12:53 PM,82.0,72.0,71,29.84,8.0,SSE,13.8,-,N/A,,Overcast,160,2013-05-18 17:53:00
1:05 PM,82.4,71.6,70,29.87,8.0,South,8.1,-,N/A,,Overcast,170,2013-05-18 18:05:00
1:53 PM,82.4,71.6,70,29.86,7.0,SSW,10.4,20.7,N/A,,Mostly Cloudy,210,2013-05-18 18:53:00
2:53 PM,84.0,72.0,67,29.82,7.0,South,9.2,-,N/A,,Clear,180,2013-05-18 19:53:00
3:53 PM,84.0,72.0,67,29.80,7.0,South,9.2,-,N/A,,Clear,170,2013-05-18 20:53:00
4:53 PM,82.0,72.0,71,29.81,6.0,South,9.2,-,N/A,,Haze,170,2013-05-18 21:53:00
5:53 PM,82.0,71.1,69,29.77,6.0,SE,11.5,-,N/A,,Haze,130,2013-05-18 22:53:00
6:53 PM,81.0,71.1,72,29.76,6.0,SSE,10.4,-,N/A,,Haze,150,2013-05-18 23:53:00
7:53 PM,80.1,70.0,71,29.75,6.0,SE,10.4,-,N/A,,Haze,140,2013-05-19 00:53:00
8:53 PM,77.0,71.1,82,29.75,7.0,SSE,11.5,-,N/A,,Clear,150,2013-05-19 01:53:00
9:53 PM,75.9,70.0,82,29.76,6.0,SSE,9.2,-,N/A,,Haze,160,2013-05-19 02:53:00
10:53 PM,75.0,70.0,84,29.78,6.0,SSE,6.9,-,N/A,,Haze,150,2013-05-19 03:53:00
11:53 PM,75.0,70.0,84,29.78,6.0,South,12.7,-,N/A,,Haze,170,2013-05-19 04:53:00